Wind_Speed
14 14 14 13 14 14 14 14 13 13 14 14 14 13 13 13 13 13 13 13 12 12 13 13 13 13 13 13 13 12 12 12 12 12 13 14 14 15 15 14 15 15 15
17 17 17 17 17 16 16 16 16 16 16 15 15 14 14 13 14 14 14 13 13 13 14 13 13 13 12 12 12 13 13 13 13 13 13 15 15 15 15 15 15 15 15
18 19 19 19 19 18 18 17 17 17 17 16 16 16 16 15 15 15 15 14 14 14 14 14 14 13 12 13 13 13 13 13 13 13 14 15 15 15 15 15 15 15 16
19 20 20 20 20 20 19 18 19 19 18 17 18 18 18 17 17 16 16 16 16 15 15 15 14 13 13 14 14 14 14 14 14 14 14 14 14 14 15 16 16 16 16
20 20 20 20 20 19 19 19 20 20 20 20 19 19 19 19 18 18 17 17 17 17 16 16 15 15 15 15 15 15 15 15 15 15 15 14 14 15 16 16 16 16 16
21 21 21 20 20 20 20 20 21 22 21 21 20 20 20 19 19 19 19 18 18 18 17 17 17 16 16 16 16 16 16 16 16 16 16 15 15 15 16 16 17 17 17
21 21 21 21 21 21 21 21 21 21 21 21 21 21 20 21 20 19 19 19 19 18 18 18 18 17 17 17 17 17 17 17 17 17 17 16 16 16 17 17 17 17 18
22 23 23 23 22 21 21 22 23 23 21 21 22 21 21 21 21 21 20 20 19 19 20 19 19 18 18 18 18 19 19 19 19 18 18 18 18 18 18 18 19 19 19
22 22 23 23 23 23 23 23 24 24 24 23 22 22 21 21 21 22 22 21 21 21 21 20 20 19 20 20 20 20 20 20 20 20 19 19 19 19 19 19 19 20 21
22 22 23 23 23 24 24 24 24 25 25 25 24 23 22 22 22 23 23 23 22 22 22 22 21 21 21 21 21 21 21 21 21 20 20 20 20 20 20 20 20 21 21
23 23 23 23 24 24 24 24 25 25 26 26 26 25 24 23 23 24 24 24 23 23 23 23 22 22 22 23 22 22 22 22 22 21 21 20 20 20 20 20 20 20 20
25 24 24 24 24 24 24 24 25 25 26 25 25 25 25 25 25 25 25 25 25 25 24 24 24 23 23 23 22 22 22 22 22 22 21 21 20 20 20 20 19 19 20
26 25 25 25 24 25 25 25 25 24 24 25 26 26 26 26 26 25 25 25 26 26 26 25 24 24 24 24 24 23 22 22 22 21 21 21 20 21 20 20 20 20 20
26 25 25 25 25 25 25 25 25 25 24 25 26 26 26 26 26 26 26 26 26 25 25 25 25 25 24 24 25 24 23 23 23 22 22 21 21 21 21 21 21 21 21
26 25 25 26 26 26 26 25 25 25 25 25 26 26 26 26 27 26 26 27 26 25 25 26 26 26 25 25 25 25 25 24 24 23 22 22 22 22 22 22 21 21 21
26 26 26 26 26 25 25 25 25 25 25 24 25 27 27 27 27 27 26 26 27 26 26 26 26 26 26 26 26 26 26 25 24 23 24 24 23 23 23 23 23 23 22
25 26 25 25 25 25 25 25 25 25 26 25 25 26 27 27 27 27 27 27 27 27 27 27 26 27 27 27 27 27 26 25 25 24 25 25 24 24 24 23 23 23 23
26 25 25 25 25 25 24 25 26 26 26 26 25 25 26 26 26 27 27 27 27 27 27 26 26 27 27 27 27 27 27 26 25 25 25 25 25 25 24 23 23 23 23
27 26 26 26 25 25 25 25 26 26 26 26 26 26 26 26 26 27 27 27 26 26 26 26 26 26 27 27 27 28 28 27 27 27 27 27 26 26 25 24 24 24 24
27 27 27 27 26 25 25 26 26 26 26 27 27 25 25 26 26 26 26 26 26 26 26 26 26 26 27 27 27 27 27 28 28 28 28 28 27 26 25 25 24 24 25
27 27 27 27 27 26 25 25 25 25 25 25 26 25 25 25 26 26 26 26 26 26 26 26 26 26 27 27 27 27 27 27 27 27 27 27 27 27 27 26 26 26 25
27 27 28 27 27 26 26 25 24 24 24 24 24 25 25 25 25 26 26 27 27 27 27 27 27 26 27 27 27 27 28 28 28 27 27 27 27 27 27 27 27 28 27
28 28 28 28 27 27 27 25 25 24 25 24 24 24 25 25 25 25 25 26 26 27 26 26 26 26 26 26 26 26 26 27 27 27 27 27 27 27 27 27 27 27 27
27 27 27 28 28 27 26 25 24 24 24 23 23 24 24 23 23 24 24 25 26 26 26 26 26 25 25 26 26 27 27 28 28 28 28 28 28 28 28 28 28 28 28
27 26 26 26 25 25 25 25 25 24 24 23 23 23 24 24 23 24 24 24 25 25 26 26 26 26 26 26 26 27 27 28 28 28 28 28 28 29 29 28 29 29 29
26 26 26 26 25 25 24 24 24 24 25 25 24 23 23 23 23 23 24 24 24 25 26 26 26 25 26 26 26 26 27 28 29 29 29 29 29 29 29 30 30 30 30
Wind_Direction
277 274 272 269 268 264 259 256 254 248 245 245 245 246 249 251 252 254 254 255 256 259 260 263 265 265 265 267 270 274 279 280 280 277 277 280 280 280 279 277 276 277 277
276 276 273 270 266 263 261 258 256 252 247 244 243 244 250 253 253 253 255 254 255 259 261 265 266 265 265 266 267 270 275 279 279 276 276 278 279 278 274 274 274 276 277
276 274 271 268 264 260 259 257 255 253 249 245 245 247 250 252 253 252 252 256 258 260 262 265 267 267 265 266 269 273 275 278 280 278 278 275 275 276 273 273 275 277 276
277 275 271 266 262 258 256 256 255 254 250 251 249 248 250 251 251 251 252 255 257 259 261 263 266 268 266 268 271 272 274 277 280 280 280 276 274 273 273 273 274 275 277
274 274 272 268 265 261 259 257 255 254 253 253 252 249 248 251 252 252 251 252 255 258 259 261 262 265 265 267 269 271 274 277 279 280 280 276 274 274 275 273 274 274 275
273 272 272 269 266 264 261 259 256 255 254 253 253 251 249 250 252 252 251 250 252 255 258 260 261 262 263 265 268 272 274 276 278 280 280 277 275 277 277 276 276 275 276
271 269 268 267 265 265 262 258 257 256 254 251 251 250 250 250 250 250 249 249 250 252 257 259 260 261 262 265 268 271 273 275 278 279 278 277 276 278 279 278 276 276 278
271 268 267 265 264 263 262 258 256 256 256 254 252 250 250 250 249 248 250 250 251 253 256 258 259 261 263 265 267 269 271 273 276 277 277 278 278 278 279 279 277 276 277
270 268 265 263 262 263 263 260 258 258 257 258 254 251 250 250 250 249 250 251 252 254 256 257 259 262 264 265 267 268 269 271 273 275 275 278 279 278 278 279 279 279 278
271 268 265 263 261 262 262 261 259 259 257 255 252 252 251 252 252 251 251 252 253 254 256 258 260 261 264 267 267 268 268 269 271 273 274 276 278 279 279 279 280 280 280
269 268 267 265 263 261 261 261 261 260 258 256 252 252 252 252 251 252 252 253 253 255 257 258 259 261 263 266 267 268 268 268 271 274 274 275 276 278 279 280 281 282 283
267 266 267 265 263 262 261 262 261 262 260 258 251 251 252 253 253 253 252 252 254 255 256 257 259 261 262 265 266 267 267 268 270 273 273 275 277 277 279 280 281 283 284
267 267 265 264 264 263 263 262 262 260 259 258 254 251 251 253 252 252 253 253 254 255 255 256 258 260 261 263 265 266 267 269 270 270 271 274 276 276 277 277 279 281 282
265 266 265 264 264 265 264 262 258 257 256 257 253 251 252 253 252 252 252 253 254 255 257 257 257 258 261 264 265 265 267 269 270 270 270 271 274 277 277 277 278 279 281
264 264 263 264 265 265 264 262 258 257 257 257 254 252 253 253 254 253 252 252 253 255 258 258 258 258 260 264 265 265 266 269 270 270 271 271 273 276 278 278 278 280 282
262 262 264 264 264 264 263 262 259 258 258 258 257 256 254 254 253 253 252 254 255 256 259 259 259 259 261 263 264 265 267 269 269 269 270 270 271 273 276 276 277 279 281
263 263 263 263 263 264 263 263 261 259 258 259 260 259 256 254 252 252 252 252 255 258 259 259 260 260 261 262 263 264 266 266 266 267 268 269 270 273 275 275 276 277 279
262 263 262 262 262 262 262 263 260 258 258 259 260 261 258 255 253 252 252 253 256 258 260 261 262 261 261 261 262 263 265 265 266 266 267 269 271 272 273 274 275 276 278
262 261 261 261 261 261 261 262 261 259 259 257 259 259 256 254 253 253 253 254 256 258 260 262 263 262 262 262 262 263 264 265 266 267 266 267 270 271 272 274 274 276 278
262 261 260 259 259 260 261 261 261 260 260 258 259 258 257 255 253 253 253 254 256 258 259 260 262 262 261 262 263 264 264 265 265 266 267 267 268 269 271 272 273 275 277
261 260 259 258 258 258 260 261 260 260 260 258 256 256 256 255 254 254 254 254 255 257 259 261 262 261 261 261 263 264 264 265 265 265 266 267 268 269 270 271 273 275 278
260 259 258 257 257 257 260 260 258 260 260 259 257 255 255 256 256 257 256 255 256 257 259 260 260 261 262 263 264 265 265 265 264 264 264 266 268 269 271 272 273 273 275
260 258 257 257 257 257 257 257 258 259 259 258 257 257 258 257 256 258 256 257 257 257 259 258 257 259 261 263 265 265 265 265 264 264 265 265 267 268 270 271 273 275 274
259 257 255 255 255 255 255 256 258 258 257 257 258 259 258 256 257 258 258 258 256 257 256 256 256 258 261 264 265 264 264 263 263 263 264 264 266 267 269 270 272 273 274
259 256 254 254 254 255 255 256 257 256 256 257 259 261 259 258 260 260 259 258 258 258 257 258 260 262 263 265 267 265 264 263 262 263 264 265 267 269 270 271 272 273 273
260 257 254 253 252 253 254 256 256 256 255 256 258 260 259 259 260 262 261 259 259 259 259 259 261 262 263 265 265 265 265 264 263 264 266 267 269 269 270 271 272 272 273
Height
5819 5819 5818 5818 5818 5818 5819 5819 5819 5820 5821 5822 5823 5824 5824 5825 5826 5827 5827 5828 5828 5828 5828 5829 5829 5829 5828 5828 5828 5827 5827 5826 5826 5825 5824 5823 5822 5821 5821 5820 5819 5819 5818
5815 5814 5814 5814 5814 5814 5815 5815 5815 5816 5817 5818 5818 5819 5820 5821 5822 5822 5823 5824 5824 5824 5825 5825 5825 5824 5824 5824 5824 5824 5823 5823 5822 5821 5820 5819 5818 5817 5816 5816 5815 5815 5814
5810 5809 5809 5809 5809 5809 5810 5810 5811 5811 5812 5813 5814 5815 5816 5817 5818 5818 5819 5819 5820 5820 5820 5821 5820 5821 5821 5820 5820 5820 5819 5819 5818 5817 5816 5815 5814 5813 5812 5812 5811 5810 5810
5804 5803 5803 5803 5803 5804 5804 5805 5806 5806 5807 5808 5809 5810 5811 5812 5813 5814 5814 5815 5815 5816 5816 5816 5816 5816 5817 5816 5816 5816 5815 5815 5814 5813 5812 5811 5810 5809 5808 5807 5807 5806 5806
5797 5797 5797 5797 5797 5798 5798 5799 5800 5801 5802 5803 5803 5804 5805 5806 5807 5808 5809 5810 5810 5811 5811 5811 5812 5812 5812 5812 5812 5811 5811 5810 5810 5809 5808 5806 5805 5804 5804 5803 5802 5802 5801
5791 5791 5791 5791 5791 5791 5792 5793 5794 5795 5796 5797 5797 5798 5800 5801 5802 5803 5804 5805 5805 5806 5806 5807 5807 5807 5807 5807 5807 5807 5806 5806 5805 5804 5803 5802 5801 5800 5799 5798 5798 5797 5797
5783 5783 5783 5784 5784 5785 5786 5787 5788 5789 5789 5790 5791 5792 5793 5795 5796 5797 5798 5799 5800 5801 5801 5802 5802 5802 5803 5803 5802 5802 5801 5801 5800 5799 5798 5797 5796 5795 5794 5794 5792 5792 5791
5776 5776 5776 5777 5777 5778 5779 5780 5781 5782 5783 5784 5785 5786 5787 5788 5790 5791 5792 5793 5795 5795 5796 5796 5797 5797 5797 5797 5797 5796 5796 5795 5795 5794 5793 5792 5791 5790 5789 5788 5787 5786 5786
5769 5769 5769 5769 5770 5771 5772 5773 5774 5775 5776 5777 5778 5779 5781 5782 5783 5784 5786 5787 5788 5789 5790 5791 5791 5792 5791 5791 5791 5791 5790 5789 5789 5788 5787 5787 5786 5784 5783 5783 5782 5780 5780
5761 5761 5761 5762 5763 5764 5764 5765 5766 5768 5769 5770 5771 5772 5774 5775 5777 5778 5779 5781 5782 5783 5784 5785 5785 5785 5785 5785 5785 5784 5784 5783 5782 5782 5781 5781 5780 5779 5777 5776 5775 5774 5773
5754 5754 5754 5755 5756 5756 5757 5758 5759 5760 5761 5762 5764 5765 5767 5769 5770 5771 5773 5774 5775 5776 5777 5778 5778 5778 5778 5778 5778 5777 5777 5777 5776 5775 5775 5774 5773 5772 5771 5770 5769 5768 5767
5747 5747 5747 5748 5749 5749 5750 5751 5752 5752 5753 5754 5755 5758 5759 5761 5763 5764 5765 5766 5768 5769 5770 5770 5771 5771 5771 5771 5770 5770 5770 5770 5769 5769 5768 5768 5767 5766 5765 5764 5763 5762 5760
5739 5739 5740 5741 5741 5742 5743 5743 5744 5745 5746 5747 5748 5750 5752 5753 5755 5756 5757 5758 5760 5761 5761 5762 5762 5763 5763 5763 5763 5763 5763 5763 5763 5762 5762 5761 5761 5760 5759 5758 5757 5756 5754
5732 5732 5732 5733 5734 5734 5735 5736 5736 5737 5738 5739 5741 5742 5743 5745 5746 5748 5749 5750 5751 5752 5753 5754 5755 5755 5755 5756 5756 5756 5756 5756 5755 5755 5755 5755 5754 5753 5752 5751 5750 5749 5748
5724 5724 5725 5726 5726 5727 5727 5728 5728 5730 5730 5732 5732 5734 5735 5737 5738 5739 5740 5742 5743 5744 5745 5746 5747 5747 5748 5748 5749 5748 5748 5748 5748 5748 5748 5748 5747 5746 5745 5745 5744 5743 5742
5716 5717 5717 5718 5718 5718 5719 5720 5720 5722 5723 5723 5724 5725 5726 5728 5729 5730 5732 5733 5735 5736 5737 5738 5739 5739 5740 5740 5740 5741 5740 5740 5740 5740 5740 5740 5740 5740 5739 5738 5737 5736 5735
5707 5708 5709 5710 5710 5710 5711 5712 5713 5714 5714 5715 5715 5716 5718 5719 5720 5722 5723 5725 5726 5727 5728 5729 5730 5731 5732 5732 5732 5733 5733 5732 5733 5733 5733 5733 5732 5732 5731 5730 5730 5729 5728
5699 5700 5701 5701 5702 5702 5703 5704 5705 5706 5706 5707 5707 5708 5709 5710 5712 5713 5715 5716 5718 5719 5720 5721 5721 5722 5722 5723 5723 5724 5724 5724 5725 5725 5725 5725 5725 5724 5724 5723 5722 5722 5721
5690 5691 5692 5693 5693 5694 5695 5695 5696 5697 5698 5699 5700 5700 5701 5702 5703 5705 5706 5708 5709 5710 5711 5712 5712 5713 5713 5714 5715 5715 5716 5716 5716 5717 5717 5717 5717 5716 5716 5715 5715 5714 5713
5681 5682 5683 5684 5685 5686 5686 5687 5688 5689 5689 5690 5691 5691 5692 5693 5695 5696 5698 5699 5700 5701 5702 5703 5703 5704 5705 5705 5706 5706 5707 5707 5708 5708 5708 5708 5708 5708 5708 5707 5707 5706 5706
5672 5673 5674 5675 5676 5677 5678 5678 5679 5680 5681 5681 5682 5683 5684 5685 5686 5688 5689 5690 5691 5692 5693 5694 5694 5695 5696 5696 5697 5697 5697 5698 5698 5699 5699 5699 5699 5700 5700 5699 5699 5698 5698
5662 5663 5664 5666 5667 5668 5669 5670 5670 5671 5672 5673 5674 5674 5675 5676 5677 5679 5680 5681 5682 5683 5684 5684 5685 5686 5686 5687 5687 5687 5687 5688 5689 5689 5690 5690 5691 5691 5691 5691 5691 5690 5689
5652 5654 5655 5656 5658 5659 5660 5661 5662 5663 5664 5664 5666 5666 5667 5668 5669 5670 5671 5672 5672 5674 5675 5675 5676 5677 5677 5678 5678 5678 5678 5679 5679 5680 5681 5681 5682 5682 5682 5682 5681 5681 5680
5643 5644 5645 5647 5648 5650 5651 5653 5654 5655 5656 5657 5658 5658 5659 5659 5661 5662 5662 5663 5664 5665 5666 5667 5668 5668 5669 5669 5669 5669 5669 5670 5670 5671 5672 5672 5673 5673 5673 5672 5672 5671 5671
5634 5634 5636 5638 5639 5641 5643 5644 5645 5647 5648 5649 5650 5651 5652 5652 5653 5654 5654 5655 5656 5656 5657 5658 5659 5660 5660 5660 5660 5660 5660 5661 5662 5662 5663 5663 5663 5663 5663 5663 5663 5662 5662
5624 5625 5627 5629 5631 5632 5634 5636 5637 5638 5640 5641 5642 5643 5644 5645 5645 5646 5646 5647 5648 5648 5649 5650 5650 5651 5651 5651 5652 5652 5652 5653 5653 5653 5653 5654 5654 5654 5654 5654 5653 5652 5652